Time,TemperatureF,DewpointF,PressureIn,WindDirection,WindDirectionDegrees,WindSpeedMPH,WindSpeedGustMPH,Humidity,HourlyPrecipIn,Conditions,Clouds,dailyrainin,SolarRadiationWatts/m^2,SoftwareType,DateUTC
2013-08-29 00:08:00,64.0,63.0,-100.00,WNW,299,3.0,6.0,95,0.00,,,0.01,0.000000,,2013-08-29 04:08:00,
2013-08-29 00:14:00,63.0,63.0,-100.00,NW,308,2.0,4.0,99,0.00,,,0.01,0.000000,,2013-08-29 04:14:00,
2013-08-29 00:46:00,63.0,63.0,-100.00,NW,308,2.0,4.0,99,0.00,,,0.01,0.000000,,2013-08-29 04:46:00,
2013-08-29 00:54:00,63.0,63.0,-100.00,NW,308,2.0,4.0,99,0.00,,,0.01,0.000000,,2013-08-29 04:54:00,
2013-08-29 01:05:00,63.0,63.0,-100.00,NW,308,2.0,4.0,99,0.00,,,0.01,0.000000,,2013-08-29 05:05:00,
2013-08-29 01:42:00,60.0,60.0,-100.00,NE,42,0.0,3.0,99,0.00,,,0.01,0.000000,,2013-08-29 05:42:00,
2013-08-29 01:52:00,60.0,60.0,-100.00,NE,42,0.0,3.0,99,0.00,,,0.01,0.000000,,2013-08-29 05:52:00,
2013-08-29 02:02:00,60.0,60.0,-100.00,NE,42,0.0,3.0,99,0.00,,,0.01,0.000000,,2013-08-29 06:02:00,
2013-08-29 02:12:00,60.0,60.0,-100.00,NE,42,0.0,3.0,99,0.00,,,0.01,0.000000,,2013-08-29 06:12:00,
2013-08-29 02:43:00,60.0,60.0,-100.00,NW,323,1.0,3.0,100,0.00,,,0.01,0.000000,,2013-08-29 06:43:00,
2013-08-29 02:52:00,60.0,60.0,-100.00,NW,323,1.0,3.0,100,0.00,,,0.01,0.000000,,2013-08-29 06:52:00,
2013-08-29 03:01:00,60.0,60.0,-100.00,NW,323,1.0,3.0,100,0.00,,,0.01,0.000000,,2013-08-29 07:01:00,
2013-08-29 03:12:00,60.0,60.0,-100.00,NW,323,1.0,3.0,100,0.00,,,0.01,0.000000,,2013-08-29 07:12:00,
2013-08-29 03:42:00,59.0,59.0,-100.00,NNW,344,1.0,3.0,100,0.00,,,0.01,0.000000,,2013-08-29 07:42:00,
2013-08-29 03:53:00,59.0,59.0,-100.00,NNW,344,1.0,3.0,100,0.00,,,0.01,0.000000,,2013-08-29 07:53:00,
2013-08-29 04:02:00,59.0,59.0,-100.00,NNW,344,1.0,3.0,100,0.00,,,0.01,0.000000,,2013-08-29 08:02:00,
2013-08-29 04:12:00,59.0,59.0,-100.00,NNW,344,1.0,3.0,100,0.00,,,0.01,0.000000,,2013-08-29 08:12:00,
2013-08-29 04:42:00,58.0,58.0,-100.00,WNW,301,2.0,4.0,100,0.00,,,0.01,0.000000,,2013-08-29 08:42:00,
2013-08-29 04:52:00,58.0,58.0,-100.00,WNW,301,2.0,4.0,100,0.00,,,0.01,0.000000,,2013-08-29 08:52:00,
2013-08-29 05:01:00,58.0,58.0,-100.00,WNW,301,2.0,4.0,100,0.00,,,0.01,0.000000,,2013-08-29 09:01:00,
2013-08-29 05:12:00,58.0,58.0,-100.00,WNW,301,2.0,4.0,100,0.00,,,0.01,0.000000,,2013-08-29 09:12:00,
2013-08-29 05:14:00,57.0,57.0,-100.00,NE,43,0.0,3.0,100,0.00,,,0.01,0.000000,,2013-08-29 09:14:00,
2013-08-29 05:43:00,57.0,57.0,-100.00,NE,43,0.0,3.0,100,0.00,,,0.01,0.000000,,2013-08-29 09:43:00,
2013-08-29 05:55:00,57.0,57.0,-100.00,NE,43,0.0,3.0,100,0.00,,,0.01,0.000000,,2013-08-29 09:55:00,
2013-08-29 06:06:00,57.0,57.0,-100.00,NE,43,0.0,3.0,100,0.00,,,0.01,0.000000,,2013-08-29 10:06:00,
2013-08-29 06:43:00,58.0,58.0,-100.00,ENE,68,3.0,4.0,100,0.00,,,0.01,0.000000,,2013-08-29 10:43:00,
2013-08-29 06:53:00,58.0,58.0,-100.00,ENE,68,3.0,4.0,100,0.00,,,0.01,0.000000,,2013-08-29 10:53:00,
2013-08-29 07:03:00,58.0,58.0,-100.00,ENE,68,3.0,4.0,100,0.00,,,0.01,0.000000,,2013-08-29 11:03:00,
2013-08-29 07:12:00,58.0,58.0,-100.00,ENE,68,3.0,4.0,100,0.00,,,0.01,0.000000,,2013-08-29 11:12:00,
2013-08-29 07:42:00,58.0,58.0,-100.00,SW,225,0.0,2.0,100,0.00,,,0.00,4.000000,,2013-08-29 11:42:00,
2013-08-29 07:52:00,58.0,58.0,-100.00,SW,225,0.0,2.0,100,0.00,,,0.00,4.000000,,2013-08-29 11:52:00,
2013-08-29 08:02:00,58.0,58.0,-100.00,SW,225,0.0,2.0,100,0.00,,,0.00,4.000000,,2013-08-29 12:02:00,
2013-08-29 08:12:00,58.0,58.0,-100.00,SW,225,0.0,2.0,100,0.00,,,0.00,4.000000,,2013-08-29 12:12:00,
2013-08-29 08:42:00,60.0,60.0,-100.00,WSW,256,1.0,2.0,100,0.00,,,0.00,58.000000,,2013-08-29 12:42:00,
2013-08-29 08:52:00,60.0,60.0,-100.00,WSW,256,1.0,2.0,100,0.00,,,0.00,58.000000,,2013-08-29 12:52:00,
2013-08-29 09:02:00,60.0,60.0,-100.00,WSW,256,1.0,2.0,100,0.00,,,0.00,58.000000,,2013-08-29 13:02:00,
2013-08-29 09:12:00,60.0,60.0,-100.00,WSW,256,1.0,2.0,100,0.00,,,0.00,58.000000,,2013-08-29 13:12:00,
2013-08-29 09:42:00,67.0,67.0,-100.00,SSW,210,2.0,4.0,99,0.00,,,0.00,272.000000,,2013-08-29 13:42:00,
2013-08-29 09:52:00,67.0,67.0,-100.00,SSW,210,2.0,4.0,99,0.00,,,0.00,272.000000,,2013-08-29 13:52:00,
2013-08-29 10:02:00,67.0,67.0,-100.00,SSW,210,2.0,4.0,99,0.00,,,0.00,272.000000,,2013-08-29 14:02:00,
2013-08-29 10:11:00,67.0,67.0,-100.00,SSW,210,2.0,4.0,99,0.00,,,0.00,272.000000,,2013-08-29 14:11:00,
2013-08-29 10:42:00,74.0,68.0,-100.00,NNW,348,2.0,4.0,81,0.00,,,0.00,467.000000,,2013-08-29 14:42:00,
2013-08-29 10:52:00,74.0,68.0,-100.00,NNW,348,2.0,4.0,81,0.00,,,0.00,467.000000,,2013-08-29 14:52:00,
2013-08-29 11:02:00,74.0,68.0,-100.00,NNW,348,2.0,4.0,81,0.00,,,0.00,467.000000,,2013-08-29 15:02:00,
2013-08-29 11:12:00,74.0,68.0,-100.00,NNW,348,2.0,4.0,81,0.00,,,0.00,467.000000,,2013-08-29 15:12:00,
2013-08-29 11:43:00,79.0,68.0,-100.00,NNW,342,3.0,6.0,68,0.00,,,0.00,663.000000,,2013-08-29 15:43:00,
2013-08-29 11:53:00,79.0,68.0,-100.00,NNW,342,3.0,6.0,68,0.00,,,0.00,663.000000,,2013-08-29 15:53:00,
2013-08-29 12:05:00,79.0,68.0,-100.00,NNW,342,3.0,6.0,68,0.00,,,0.00,663.000000,,2013-08-29 16:05:00,
2013-08-29 12:13:00,79.0,68.0,-100.00,NNW,342,3.0,6.0,68,0.00,,,0.00,663.000000,,2013-08-29 16:13:00,
2013-08-29 12:43:00,84.0,69.0,-100.00,East,90,2.0,5.0,61,0.00,,,0.00,819.000000,,2013-08-29 16:43:00,
2013-08-29 12:54:00,84.0,69.0,-100.00,East,90,2.0,5.0,61,0.00,,,0.00,819.000000,,2013-08-29 16:54:00,
2013-08-29 13:04:00,84.0,69.0,-100.00,East,90,2.0,5.0,61,0.00,,,0.00,819.000000,,2013-08-29 17:04:00,
2013-08-29 13:13:00,84.0,69.0,-100.00,East,90,2.0,5.0,61,0.00,,,0.00,819.000000,,2013-08-29 17:13:00,
2013-08-29 13:44:00,85.0,69.0,-100.00,SSE,162,3.0,6.0,59,0.00,,,0.00,916.000000,,2013-08-29 17:44:00,
2013-08-29 13:53:00,85.0,69.0,-100.00,SSE,162,3.0,6.0,59,0.00,,,0.00,916.000000,,2013-08-29 17:53:00,
2013-08-29 14:02:00,85.0,69.0,-100.00,SSE,162,3.0,6.0,59,0.00,,,0.00,916.000000,,2013-08-29 18:02:00,
2013-08-29 14:12:00,85.0,69.0,-100.00,SSE,162,3.0,6.0,59,0.00,,,0.00,916.000000,,2013-08-29 18:12:00,
2013-08-29 14:42:00,87.0,70.0,-100.00,ENE,76,2.0,6.0,58,0.00,,,0.00,885.000000,,2013-08-29 18:42:00,
2013-08-29 14:52:00,87.0,70.0,-100.00,ENE,76,2.0,6.0,58,0.00,,,0.00,885.000000,,2013-08-29 18:52:00,
2013-08-29 15:01:00,87.0,70.0,-100.00,ENE,76,2.0,6.0,58,0.00,,,0.00,885.000000,,2013-08-29 19:01:00,
2013-08-29 15:11:00,87.0,70.0,-100.00,ENE,76,2.0,6.0,58,0.00,,,0.00,885.000000,,2013-08-29 19:11:00,
2013-08-29 15:42:00,88.0,69.0,-100.00,South,175,5.0,8.0,54,0.00,,,0.00,725.000000,,2013-08-29 19:42:00,
2013-08-29 15:53:00,88.0,69.0,-100.00,South,175,5.0,8.0,54,0.00,,,0.00,725.000000,,2013-08-29 19:53:00,
2013-08-29 16:02:00,88.0,69.0,-100.00,South,175,5.0,8.0,54,0.00,,,0.00,725.000000,,2013-08-29 20:02:00,
2013-08-29 16:13:00,88.0,69.0,-100.00,South,175,5.0,8.0,54,0.00,,,0.00,725.000000,,2013-08-29 20:13:00,
2013-08-29 16:42:00,87.0,71.0,-100.00,South,178,8.0,14.0,59,0.00,,,0.00,727.000000,,2013-08-29 20:42:00,
2013-08-29 16:52:00,87.0,71.0,-100.00,South,178,8.0,14.0,59,0.00,,,0.00,727.000000,,2013-08-29 20:52:00,
2013-08-29 17:02:00,87.0,71.0,-100.00,South,178,8.0,14.0,59,0.00,,,0.00,727.000000,,2013-08-29 21:02:00,
2013-08-29 17:12:00,87.0,71.0,-100.00,South,178,8.0,14.0,59,0.00,,,0.00,727.000000,,2013-08-29 21:12:00,
2013-08-29 17:14:00,85.0,69.0,-100.00,SW,218,9.0,13.0,58,0.00,,,0.00,661.000000,,2013-08-29 21:14:00,
2013-08-29 17:44:00,85.0,69.0,-100.00,SW,218,9.0,13.0,58,0.00,,,0.00,661.000000,,2013-08-29 21:44:00,
2013-08-29 17:54:00,85.0,69.0,-100.00,SW,218,9.0,13.0,58,0.00,,,0.00,661.000000,,2013-08-29 21:54:00,
2013-08-29 18:04:00,85.0,69.0,-100.00,SW,218,9.0,13.0,58,0.00,,,0.00,661.000000,,2013-08-29 22:04:00,
2013-08-29 18:53:00,81.0,67.0,-100.00,SW,223,7.0,14.0,63,0.00,,,0.00,391.000000,,2013-08-29 22:53:00,
2013-08-29 19:03:00,81.0,67.0,-100.00,SW,223,7.0,14.0,63,0.00,,,0.00,391.000000,,2013-08-29 23:03:00,
2013-08-29 19:13:00,81.0,67.0,-100.00,SW,223,7.0,14.0,63,0.00,,,0.00,391.000000,,2013-08-29 23:13:00,
2013-08-29 19:43:00,78.0,67.0,-100.00,SW,225,5.0,11.0,70,0.00,,,0.00,180.000000,,2013-08-29 23:43:00,
2013-08-29 19:53:00,78.0,67.0,-100.00,SW,225,5.0,11.0,70,0.00,,,0.00,180.000000,,2013-08-29 23:53:00,
2013-08-29 20:02:00,78.0,67.0,-100.00,SW,225,5.0,11.0,70,0.00,,,0.00,180.000000,,2013-08-30 00:02:00,
2013-08-29 20:12:00,78.0,67.0,-100.00,SW,225,5.0,11.0,70,0.00,,,0.00,180.000000,,2013-08-30 00:12:00,
2013-08-29 20:42:00,74.0,68.0,-100.00,SW,229,3.0,6.0,82,0.00,,,0.00,38.000000,,2013-08-30 00:42:00,
2013-08-29 20:52:00,74.0,68.0,-100.00,SW,229,3.0,6.0,82,0.00,,,0.00,38.000000,,2013-08-30 00:52:00,
2013-08-29 21:02:00,74.0,68.0,-100.00,SW,229,3.0,6.0,82,0.00,,,0.00,38.000000,,2013-08-30 01:02:00,
2013-08-29 21:12:00,74.0,68.0,-100.00,SW,229,3.0,6.0,82,0.00,,,0.00,38.000000,,2013-08-30 01:12:00,
2013-08-29 21:42:00,71.0,67.0,-100.00,South,177,2.0,7.0,88,0.00,,,0.00,0.000000,,2013-08-30 01:42:00,
2013-08-29 21:52:00,71.0,67.0,-100.00,South,177,2.0,7.0,88,0.00,,,0.00,0.000000,,2013-08-30 01:52:00,
2013-08-29 22:02:00,71.0,67.0,-100.00,South,177,2.0,7.0,88,0.00,,,0.00,0.000000,,2013-08-30 02:02:00,
2013-08-29 22:11:00,71.0,67.0,-100.00,South,177,2.0,7.0,88,0.00,,,0.00,0.000000,,2013-08-30 02:11:00,
2013-08-29 22:42:00,68.0,66.0,-100.00,SSE,150,4.0,6.0,94,0.00,,,0.00,0.000000,,2013-08-30 02:42:00,
2013-08-29 22:52:00,68.0,66.0,-100.00,SSE,150,4.0,6.0,94,0.00,,,0.00,0.000000,,2013-08-30 02:52:00,
2013-08-29 23:02:00,68.0,66.0,-100.00,SSE,150,4.0,6.0,94,0.00,,,0.00,0.000000,,2013-08-30 03:02:00,
2013-08-29 23:12:00,68.0,66.0,-100.00,SSE,150,4.0,6.0,94,0.00,,,0.00,0.000000,,2013-08-30 03:12:00,
2013-08-29 23:14:00,68.0,67.0,-100.00,SSE,149,6.0,7.0,95,0.00,,,0.00,0.000000,,2013-08-30 03:14:00,
2013-08-29 23:43:00,68.0,67.0,-100.00,SSE,149,6.0,7.0,95,0.00,,,0.00,0.000000,,2013-08-30 03:43:00,
2013-08-29 23:55:00,68.0,67.0,-100.00,SSE,149,6.0,7.0,95,0.00,,,0.00,0.000000,,2013-08-30 03:55:00,